HULIANGWANG DIGUI-03 (62325 NORAD) Tracking and Keplerian Element Data

This shows tracking and keplerian element data for the satellite.

Feedback or suggestion? Click here.




ElementValue
Catalog62325
NameHULIANGWANG DIGUI-03
Epoch Orbit660
Epoch Day34.78990273
Epoch Year2025
RAAN151.7936
Inclination86.5031
Eccentricity0.0013529
Argument of Perigee154.9743
Mean Anonmoly205.2057
Mean Motion13.375644
Decay Rate1.12E-06
L11 62325U 24240C 25034.78990273 .00000112 00000+0 18516-3 0 9996
L22 62325 86.5031 151.7936 0013529 154.9743 205.2057 13.37564400 6604



Live tracking and technical data element details for HULIANGWANG DIGUI-03 (NORAD 62325). HULIANGWANG DIGUI-03 can be tracked NOW for your location showing map with azimuth and elevation plus other details from your city location.







IsCatalogInMostPopularTable: catalog: 62325, numindb: 19
Update: records affected: 1



GetName: 62325 HULIANGWANG DIGUI-03

Hit Count: updated at: Mon, 19 May 2025 01:51:14 GMT